GFSSW_250_spd_000.txt.gz
Wind_Speed
63 61 59 58 61 71 71 71 72 70 66 66 67 67 64 63 63 65 68 66 60 62 60 63 64 61 56 61 67 65 68 72 71 72 74 79 78 76 74 71 82 72 56 54 56
68 65 61 62 60 72 75 74 71 74 70 71 70 72 69 64 65 62 63 61 58 64 62 65 67 64 64 68 69 66 69 69 69 71 75 75 76 71 75 80 83 67 57 53 54
70 67 65 65 66 65 78 75 78 75 78 81 78 76 74 72 70 65 69 68 62 61 64 65 70 73 69 68 67 69 67 68 70 76 76 79 81 77 82 84 72 57 52 53 57
71 69 67 68 70 69 71 70 70 70 72 78 79 77 77 78 76 72 76 71 68 64 64 67 66 66 67 64 65 72 66 72 81 75 76 76 79 82 85 75 65 49 51 54 56
69 69 71 69 70 69 70 74 71 70 67 71 69 79 81 84 83 83 77 74 72 71 71 69 66 64 58 59 66 72 76 74 76 78 82 76 85 85 74 68 59 51 54 60 60
64 68 66 66 68 69 71 71 69 68 69 70 77 76 81 85 84 79 75 70 68 67 66 67 67 67 69 66 68 73 75 75 76 73 77 82 84 76 68 68 58 56 61 61 60
54 55 58 60 61 61 63 66 67 63 63 60 60 63 65 61 75 76 67 67 68 68 69 68 62 65 72 73 73 76 74 73 74 79 81 83 75 62 61 63 60 58 57 59 60
58 57 57 57 56 57 52 55 56 58 56 55 53 53 56 64 60 64 63 66 71 69 69 71 69 68 64 65 70 79 75 76 78 80 84 81 62 59 61 61 61 57 56 58 60
65 63 60 63 60 62 62 61 60 60 57 57 56 55 61 68 68 66 64 65 67 65 59 61 62 63 64 69 74 72 72 74 81 82 79 66 56 60 60 59 59 56 59 60 63
67 70 67 67 69 66 70 67 67 64 58 68 65 64 67 75 69 65 66 70 69 70 71 66 69 70 70 76 73 75 77 81 85 80 55 47 46 49 52 52 58 59 60 60 62
71 73 69 68 75 77 73 72 72 71 70 70 65 70 69 75 76 72 73 76 72 68 68 72 71 71 75 72 74 77 80 69 55 44 41 42 45 50 53 51 51 53 56 58 58
58 62 69 74 78 78 78 78 76 75 75 77 74 77 76 77 78 78 76 72 71 72 75 73 72 76 73 75 73 71 54 42 40 41 42 39 41 42 42 43 44 42 43 44 48
66 64 65 65 67 70 74 79 81 81 79 78 79 74 80 76 76 77 76 75 73 74 72 73 75 71 71 66 60 46 42 37 38 38 37 38 43 41 40 42 44 45 43 44 47
72 72 71 70 72 70 67 67 68 69 71 71 78 79 83 77 76 81 77 77 75 72 78 72 69 67 57 46 43 36 33 33 32 33 32 36 38 34 36 41 41 41 38 38 36
84 81 79 75 74 79 73 72 72 69 65 57 62 66 71 72 72 77 76 75 74 74 62 57 54 41 35 38 28 26 24 28 29 28 28 29 32 35 36 37 34 33 28 32 29
92 91 88 83 81 84 83 81 77 77 60 53 52 51 52 51 51 53 53 53 51 47 45 40 40 33 33 25 24 23 23 27 30 31 29 32 31 31 32 32 32 28 31 28 27
98 97 95 92 87 91 90 90 88 76 55 50 51 53 57 54 52 49 45 44 42 41 38 45 39 31 29 24 25 22 24 29 31 33 34 33 32 32 30 29 30 27 29 29 27
100 98 100 99 97 99 100 99 94 63 65 61 57 57 58 60 54 54 52 47 43 38 42 37 33 36 31 23 26 22 26 29 30 32 35 33 32 32 27 26 26 28 29 27 21
96 102 100 100 105 106 110 108 80 73 74 74 71 65 60 57 58 57 52 48 47 45 44 43 39 40 28 29 23 22 24 28 28 33 34 36 34 32 25 24 25 29 29 15 17
91 95 96 104 108 113 118 103 87 85 86 80 79 73 69 65 65 61 58 49 48 46 49 44 45 43 38 26 26 26 27 28 30 33 31 39 39 34 25 23 23 28 19 12 13
73 83 97 103 112 116 120 96 94 96 92 90 86 84 78 75 71 68 63 60 56 57 58 52 51 48 43 31 35 31 29 31 31 32 31 40 42 32 30 22 22 24 20 7 9
61 69 89 99 110 113 114 97 107 107 103 95 92 90 86 84 80 77 72 67 63 64 63 58 59 51 50 42 36 33 36 35 35 32 35 37 41 32 29 21 22 23 19 4 7
57 63 76 87 99 111 112 109 116 112 108 103 97 96 95 90 87 83 82 77 73 70 68 68 56 56 55 40 39 40 41 35 35 35 36 38 39 27 29 21 21 25 17 5 6
51 59 66 73 86 103 112 114 119 114 113 110 103 97 95 91 89 90 87 83 80 77 76 74 68 59 52 52 51 43 43 36 36 36 38 41 39 28 28 24 15 19 16 5 11
46 51 57 64 76 90 106 113 116 117 116 116 108 105 105 99 95 93 94 92 89 84 82 79 70 64 60 59 53 50 45 40 35 40 39 38 38 33 29 24 15 19 20 10 10
40 45 49 58 66 75 89 103 113 119 120 119 114 114 110 104 105 98 98 94 95 91 86 82 73 70 67 64 58 54 47 37 37 43 40 36 41 33 27 22 15 17 21 11 9
35 38 44 49 56 65 78 89 103 117 122 124 119 120 113 112 106 105 96 93 91 91 89 83 79 74 67 66 65 59 44 42 42 45 41 37 42 32 27 24 17 16 17 10 11

GFSSW_250_spd_003.txt.gz
Wind_Speed
61 65 66 64 62 63 67 67 67 72 76 78 77 75 71 72 69 65 67 63 64 63 57 59 62 60 60 63 61 62 63 67 67 68 71 73 73 72 65 73 83 80 84 83 87
65 65 65 67 66 66 62 65 64 65 72 79 80 71 70 70 69 68 69 66 66 64 57 60 66 67 65 64 63 65 63 65 71 70 71 73 67 65 71 79 83 83 79 85 83
70 67 66 67 68 69 65 64 63 61 67 70 72 69 76 74 69 69 67 69 66 66 63 66 63 65 62 63 65 62 65 66 67 69 70 65 67 74 78 84 85 77 84 84 75
73 71 69 70 71 71 70 68 65 68 67 74 77 77 77 76 73 72 76 77 74 78 78 71 72 69 66 66 65 64 68 69 69 69 68 71 78 78 80 84 80 80 83 76 67
76 76 75 74 74 74 76 74 70 69 70 70 78 80 83 75 76 78 80 82 82 81 79 74 73 73 72 67 64 63 69 61 57 66 77 72 75 77 81 84 79 83 72 61 61
73 76 77 76 76 75 76 76 73 69 70 72 71 73 72 69 72 82 81 84 84 81 81 78 79 78 72 69 65 67 63 69 72 66 74 77 73 75 78 75 82 79 66 64 44
62 69 73 74 75 76 77 75 75 74 74 74 75 75 74 75 73 70 72 72 73 77 79 78 76 69 62 63 66 64 70 67 71 74 74 72 73 78 81 79 81 76 61 62 64
56 59 63 65 70 70 74 75 74 73 73 74 74 73 72 75 71 70 70 69 68 68 64 57 55 55 58 61 63 69 65 71 73 70 67 73 77 80 81 79 74 58 56 60 62
56 58 62 64 62 63 64 67 68 68 70 70 71 69 66 68 67 64 59 60 58 56 55 58 59 60 64 65 66 64 61 62 70 74 73 70 73 75 76 63 49 47 49 54 53
58 61 63 66 70 66 67 65 61 63 62 61 58 59 60 64 66 63 62 63 58 60 61 65 64 65 62 66 63 64 63 66 67 73 70 74 71 68 51 46 44 44 42 43 44
56 54 65 71 72 74 77 72 73 67 64 66 63 60 63 62 68 57 57 63 59 63 67 74 69 62 68 69 63 63 62 63 64 67 70 72 61 55 51 48 46 44 43 41 43
64 64 63 63 72 79 82 83 78 75 71 74 70 68 70 73 69 72 66 68 69 68 68 67 62 68 70 66 63 59 59 61 63 63 64 52 51 47 45 46 45 41 37 40 44
73 72 71 71 72 73 74 84 76 79 76 75 72 70 78 72 71 73 71 71 67 67 71 70 66 69 66 62 57 57 56 58 57 55 46 43 40 33 35 38 39 40 38 38 39
84 82 80 77 79 79 79 71 77 83 81 74 79 73 74 74 72 75 70 70 69 68 68 67 69 71 68 64 56 57 58 55 49 40 33 31 29 27 29 31 30 33 33 33 35
91 91 90 87 86 86 82 82 81 77 78 76 80 76 79 76 72 76 78 76 72 73 75 69 67 64 65 65 63 60 50 40 31 27 27 26 25 28 31 32 28 27 26 31 32
97 97 97 97 95 95 89 90 88 88 73 61 62 71 79 79 77 81 75 77 74 73 72 69 72 68 67 57 51 42 32 27 24 24 24 26 22 30 31 32 24 25 28 27 29
104 100 99 102 105 102 99 101 98 90 66 65 60 59 64 66 67 70 66 68 63 62 61 63 65 61 50 41 35 33 27 22 21 21 25 27 30 28 31 31 28 27 26 25 25
99 98 101 104 109 109 109 108 106 77 71 74 70 67 65 66 65 63 59 56 54 53 54 52 44 36 40 34 37 29 26 22 20 22 28 24 31 28 32 32 34 32 30 24 21
82 89 95 100 108 112 115 111 96 82 82 85 85 74 71 69 66 66 59 56 52 49 47 46 41 46 36 39 34 27 20 22 22 23 28 29 31 32 34 34 36 33 27 23 21
67 73 84 93 105 111 114 103 94 93 94 96 92 85 79 76 73 68 64 57 55 51 53 49 50 45 45 36 25 22 25 23 24 25 28 29 32 35 36 35 36 33 25 21 20
55 63 74 82 96 103 106 95 99 104 108 105 100 90 86 85 79 73 63 62 61 56 58 60 52 49 45 28 29 27 25 27 25 29 30 32 35 31 35 34 36 35 25 23 19
49 56 61 74 82 87 94 95 110 109 118 114 103 94 91 88 86 80 69 64 59 62 62 55 54 55 39 42 36 29 25 30 30 33 32 34 32 30 32 35 35 35 26 20 13
44 49 54 62 69 76 87 95 105 113 122 115 107 101 99 93 90 84 77 71 68 67 59 64 52 53 47 37 28 27 34 37 37 33 32 34 34 32 29 34 30 30 24 18 16
40 43 47 50 60 68 77 86 103 114 120 113 110 107 98 94 88 84 82 81 77 69 66 74 59 55 43 42 46 46 45 42 33 33 34 36 35 31 29 31 30 30 24 18 19
38 40 41 45 51 62 71 78 95 115 118 115 115 110 103 102 98 91 85 87 86 76 77 76 64 54 50 52 50 47 42 41 38 38 35 40 38 32 31 29 30 28 24 19 21
34 36 39 39 44 54 62 75 88 107 119 117 113 113 113 106 104 99 96 94 90 85 86 79 71 64 61 60 54 53 48 45 41 37 40 42 42 32 31 32 30 28 27 21 18
31 29 36 36 40 45 55 67 76 90 111 117 116 119 117 112 111 105 103 103 96 94 92 83 75 72 67 65 62 57 48 48 45 41 44 43 47 32 31 29 30 26 28 22 15

GFSSW_250_spd_006.txt.gz
Wind_Speed
75 72 71 75 81 84 75 75 64 67 72 69 72 74 65 69 68 62 68 67 65 64 63 63 64 63 60 63 62 58 61 63 64 63 65 64 67 69 72 68 69 63 64 75 82
75 74 74 72 73 83 83 75 69 72 76 74 72 76 75 74 74 68 68 68 68 70 69 65 62 66 69 66 61 59 60 68 67 66 65 69 68 70 72 69 64 67 76 80 85
77 78 75 74 72 74 79 77 74 66 69 68 77 80 77 80 76 77 77 75 71 71 65 63 67 68 67 62 63 67 67 71 73 71 69 65 65 71 70 66 70 74 79 78 86
77 80 79 79 77 75 74 75 76 72 69 70 66 69 76 68 69 72 75 76 74 77 74 71 67 73 67 66 73 74 68 71 73 71 68 65 67 68 64 73 77 79 82 89 81
67 73 78 81 81 78 76 74 74 74 72 71 68 67 67 64 65 72 72 72 74 76 75 74 72 72 70 74 77 76 76 76 77 77 69 73 61 64 67 70 74 81 81 81 83
59 59 72 79 83 82 78 77 75 73 73 73 69 69 66 57 72 73 71 73 73 74 70 74 77 79 75 77 81 83 78 78 76 68 62 68 61 61 74 77 79 76 80 81 87
51 58 62 68 78 84 84 82 80 77 75 73 73 71 65 63 74 69 69 72 78 71 71 74 74 78 82 81 77 74 72 66 63 62 60 60 62 73 79 76 78 79 83 83 59
50 53 63 62 68 78 83 84 84 82 80 78 74 73 67 74 74 71 72 71 72 71 70 71 68 67 66 69 67 67 66 57 58 62 62 60 57 66 71 76 77 79 80 66 55
49 53 58 63 64 69 75 81 84 85 84 83 80 77 68 75 73 77 72 72 73 73 71 71 68 66 67 60 54 60 57 59 53 59 62 57 59 66 76 78 74 77 56 56 56
54 54 57 58 65 70 71 74 77 81 84 80 81 76 73 74 75 72 71 73 73 72 72 70 66 57 52 53 65 62 61 63 66 66 67 63 68 70 68 69 76 56 54 50 52
62 63 63 62 61 66 68 71 76 75 77 73 78 77 75 70 66 69 74 71 69 67 62 60 52 49 56 63 63 63 67 66 64 59 68 69 68 68 64 70 52 48 48 50 44
68 68 68 72 71 69 67 67 77 79 70 69 67 63 63 65 64 62 63 59 62 59 63 59 54 67 69 65 65 63 67 68 63 59 66 63 60 57 55 46 43 42 43 40 37
80 77 76 76 76 79 79 77 76 75 77 74 73 62 70 67 63 63 62 66 60 59 56 56 67 67 64 66 69 65 61 60 57 60 61 57 56 51 41 37 38 37 40 36 34
88 89 86 84 82 84 86 87 83 75 74 69 76 70 71 72 66 72 68 66 66 64 68 65 70 67 67 66 64 64 60 55 56 58 58 61 43 37 32 33 32 34 33 36 31
95 94 95 94 92 91 89 90 90 88 82 64 75 79 81 76 72 72 79 77 75 74 74 67 71 72 66 61 63 59 64 58 57 57 61 53 32 28 23 24 27 26 28 32 32
105 105 102 103 103 101 97 96 97 97 80 66 71 71 76 78 77 84 79 74 76 76 72 70 70 68 64 64 65 63 62 60 59 54 42 33 26 21 21 26 26 27 29 29 30
101 103 104 108 110 110 105 106 105 100 73 74 80 71 69 77 80 82 80 81 79 75 67 70 67 68 69 68 64 66 63 59 48 36 31 29 21 20 26 29 32 32 29 26 28
83 89 96 101 109 113 115 116 106 83 81 80 84 81 75 75 77 84 85 85 77 72 74 71 70 67 66 63 61 56 51 38 34 31 27 22 17 19 27 30 32 34 32 29 27
67 72 81 91 97 102 111 112 100 92 90 88 95 97 83 81 79 82 76 69 70 73 72 69 63 64 58 50 47 37 29 35 30 30 22 19 17 19 25 29 33 34 33 28 26
56 61 68 74 82 90 92 92 93 99 101 105 103 104 94 88 87 84 79 59 61 58 60 57 55 52 49 47 38 31 33 30 30 27 18 19 20 22 28 28 30 32 32 29 26
47 52 58 64 70 74 75 76 92 106 114 114 111 110 101 92 89 87 79 68 64 61 60 56 55 48 48 32 31 32 31 31 31 22 23 18 21 24 26 26 31 33 34 31 28
39 43 49 53 58 62 71 78 87 103 115 121 119 111 104 100 95 91 81 75 66 66 64 57 53 54 40 36 40 41 37 34 24 23 21 20 24 24 28 27 30 30 33 31 27
36 37 39 44 49 54 63 68 77 95 114 121 121 112 110 107 95 89 80 75 73 74 62 61 59 54 50 45 45 37 36 28 26 26 22 26 25 22 27 26 27 28 31 33 26
34 34 35 37 41 48 56 62 72 90 106 120 117 118 112 106 95 91 81 78 77 75 67 70 64 51 49 46 44 42 33 33 34 31 27 27 30 24 25 27 28 28 29 31 29
32 33 32 31 35 42 48 58 65 80 102 116 117 120 116 107 98 97 97 94 86 80 76 76 69 50 49 52 46 46 45 38 34 29 24 33 29 28 26 27 27 29 27 29 30
32 31 30 31 30 36 46 56 63 75 94 105 114 117 117 108 105 106 101 97 88 84 84 84 70 59 53 52 48 46 44 42 38 30 32 35 29 31 27 29 22 28 27 28 30
30 30 27 30 31 36 43 50 61 72 85 95 104 115 113 111 111 110 108 100 95 92 94 83 70 66 55 54 51 47 45 41 39 38 34 34 34 29 29 32 30 27 25 27 29

GFSSW_250_spd_009.txt.gz
Wind_Speed
82 85 83 82 80 80 77 81 86 74 71 73 68 66 64 68 69 72 71 76 76 76 71 68 67 70 70 68 66 66 62 63 62 65 62 56 58 68 67 72 72 67 67 75 79
77 80 82 85 82 80 78 80 82 83 81 81 79 74 71 72 71 68 72 74 73 71 71 74 75 74 70 67 70 67 65 63 65 66 65 62 68 68 71 74 72 71 74 76 71
80 81 82 84 87 89 85 83 83 86 84 77 80 86 75 77 71 74 75 72 69 70 71 62 64 68 68 67 73 74 68 65 68 68 69 72 74 73 75 76 77 75 71 76 71
80 83 84 84 85 88 90 86 84 82 83 88 82 78 75 73 67 71 75 81 77 78 74 68 66 67 69 72 80 80 66 66 68 70 73 76 77 70 75 73 73 71 72 73 72
63 72 82 82 86 88 89 90 88 85 83 84 86 81 75 74 68 78 79 83 83 84 82 78 76 76 73 75 77 74 72 70 69 71 75 76 74 72 68 71 68 70 66 73 74
60 63 68 77 83 85 90 92 92 91 89 86 85 80 74 63 73 78 76 77 82 83 77 72 75 78 75 75 75 72 68 67 70 72 76 76 69 62 65 70 62 59 68 73 74
44 54 56 68 74 80 84 90 91 93 94 90 85 81 75 60 76 79 70 69 68 70 69 75 74 70 69 67 66 67 67 65 64 67 67 67 58 56 61 67 61 64 71 78 80
46 46 48 58 58 65 73 81 85 91 95 93 89 83 70 72 75 71 75 69 65 69 69 68 67 65 65 66 68 63 61 61 66 62 65 62 53 57 61 60 66 72 78 82 88
53 55 55 53 68 66 67 71 75 78 89 90 90 84 75 78 75 76 70 68 69 68 66 66 66 66 66 63 63 65 63 62 61 61 59 58 57 59 63 65 74 77 79 80 61
63 62 61 63 63 66 68 68 75 76 77 75 85 84 79 82 81 77 73 72 69 68 67 66 66 65 66 68 68 63 61 56 48 53 57 58 59 62 62 66 71 76 80 77 56
70 71 72 72 69 69 69 69 74 80 75 72 72 74 76 77 77 78 77 74 73 71 67 68 67 63 71 68 65 60 51 43 54 60 61 64 64 65 64 67 68 77 68 56 48
76 76 79 80 80 78 74 76 79 73 75 72 69 64 62 69 68 75 80 76 74 68 72 73 62 64 63 60 55 49 45 54 53 54 59 60 59 59 59 63 64 63 45 50 53
84 86 87 87 85 84 84 84 84 78 65 65 65 63 63 74 64 62 68 70 68 69 68 64 56 65 55 51 51 53 53 61 61 62 62 67 55 56 59 60 60 44 37 44 46
91 94 97 98 95 93 90 92 92 85 72 56 60 61 69 71 59 65 68 64 62 57 57 55 55 53 50 52 60 61 65 59 60 64 61 58 53 59 58 58 42 29 28 35 38
105 105 103 99 102 103 99 94 96 92 82 63 66 65 74 73 67 67 76 71 63 62 61 54 66 58 54 56 55 62 63 63 61 63 57 55 52 55 52 40 29 21 25 29 32
96 100 102 106 106 109 104 103 100 97 82 71 69 70 72 69 75 77 75 71 72 68 59 60 65 55 61 63 63 67 65 63 64 56 49 59 51 55 39 32 23 19 27 27 27
75 80 85 93 104 104 106 108 108 94 78 77 84 81 81 77 77 82 83 81 69 69 62 64 65 66 68 68 65 64 65 63 56 55 57 58 51 44 31 26 18 20 26 31 27
62 66 73 77 84 87 93 106 98 88 88 89 98 97 85 83 82 84 89 85 78 72 72 67 63 62 61 61 63 69 68 58 55 55 59 53 36 28 22 18 15 23 26 30 27
53 56 58 65 71 73 82 83 82 98 101 104 109 102 98 94 94 93 87 82 80 80 77 71 66 71 68 66 66 63 57 56 58 55 47 36 23 24 15 15 18 23 27 31 24
46 48 51 56 58 61 64 67 75 97 115 120 118 110 108 102 96 98 93 75 74 75 76 73 73 73 70 74 69 61 57 56 45 40 32 25 24 15 13 12 16 21 24 28 24
39 40 44 48 50 52 59 64 72 94 113 126 126 117 111 106 101 102 83 76 74 69 69 72 72 69 75 67 60 56 44 36 40 32 27 26 23 15 13 12 16 21 24 25 26
34 35 36 42 44 48 52 57 65 79 99 115 125 119 114 108 104 96 80 78 73 74 70 64 66 68 60 53 49 45 42 42 35 28 27 26 21 15 14 13 16 20 24 25 29
31 30 31 36 38 42 46 52 59 70 87 105 119 125 121 112 102 97 91 88 88 82 72 71 66 62 60 52 48 40 35 36 31 30 24 22 25 14 14 13 17 19 24 24 28
29 27 27 32 34 36 41 48 54 63 76 94 108 122 124 116 106 99 97 95 91 84 76 84 71 61 53 46 43 35 34 34 33 29 30 26 25 13 15 14 17 18 22 25 26
28 26 25 25 30 33 39 45 51 59 70 83 96 110 122 121 113 104 97 95 92 88 81 81 73 60 58 53 46 41 43 42 38 40 31 30 24 15 14 13 15 17 22 24 25
29 26 23 25 28 33 39 43 49 54 65 75 84 99 113 119 118 112 97 95 94 90 84 82 71 64 57 49 46 43 43 38 40 41 33 29 26 22 12 13 12 18 19 22 23
29 24 21 24 27 30 35 41 45 49 61 68 77 92 106 116 117 114 104 99 98 92 89 81 73 70 57 57 51 43 47 43 41 42 35 31 33 23 12 13 11 15 17 21 22

GFSSW_250_spd_012.txt.gz
Wind_Speed
76 78 76 77 80 83 85 81 82 78 72 70 74 65 67 69 71 69 74 78 74 72 76 77 80 77 73 72 69 68 64 68 70 69 67 67 63 67 66 65 65 65 73 74 74
75 78 81 80 79 83 84 89 86 88 85 78 76 76 71 71 69 70 77 78 79 74 76 79 78 73 72 74 73 69 69 70 71 70 68 68 68 71 68 68 69 70 77 71 73
76 78 80 81 85 84 84 84 87 93 94 89 90 77 82 75 72 76 78 77 75 72 73 74 76 74 74 75 74 73 67 68 72 72 73 71 72 70 72 72 70 73 74 72 76
66 74 78 81 84 87 87 90 89 91 95 89 87 93 98 75 71 82 83 78 77 76 75 77 78 79 79 78 80 74 67 69 67 70 71 74 70 74 71 68 71 76 68 68 75
65 68 71 74 81 86 88 89 89 92 96 93 89 92 87 92 72 80 84 81 79 79 79 79 80 82 82 80 78 73 69 69 71 75 71 69 72 68 66 68 68 65 66 68 72
62 66 70 74 75 80 84 89 93 95 94 94 91 88 83 78 75 81 80 78 78 80 81 80 78 81 75 77 78 77 75 72 72 69 68 65 63 66 66 67 69 67 65 69 69
44 51 60 68 75 76 79 80 84 93 95 93 92 91 85 73 81 82 80 78 81 77 81 77 77 78 76 77 79 74 75 70 66 68 67 60 65 66 65 66 67 63 65 66 74
52 53 54 55 58 66 71 78 83 86 92 93 93 93 84 87 88 85 85 80 75 78 79 81 83 80 78 74 68 69 66 63 67 57 59 60 62 62 61 59 58 60 65 71 68
62 64 63 63 63 62 63 65 71 81 86 90 91 87 83 89 86 92 90 81 81 77 72 78 78 73 72 66 64 67 62 62 59 57 61 57 60 57 51 52 57 63 67 62 71
72 74 75 75 71 70 70 69 67 71 77 78 83 84 77 82 95 90 89 87 83 80 75 72 73 68 66 64 65 64 60 56 60 59 60 61 55 47 50 51 57 61 61 70 75
74 82 85 83 81 80 78 77 76 73 66 68 71 72 71 72 82 84 86 89 89 83 73 73 67 61 69 71 69 63 56 56 61 60 59 52 42 48 52 57 61 61 68 72 69
81 82 89 95 93 90 87 86 82 79 70 63 66 65 67 69 66 77 79 81 86 82 83 77 62 68 70 67 63 59 56 59 62 59 55 43 46 52 53 60 64 65 67 70 75
89 89 92 94 102 102 100 96 87 82 73 69 66 60 69 74 65 69 69 69 69 78 76 73 69 72 71 65 61 58 57 59 53 51 41 43 48 52 57 59 62 63 63 64 52
103 102 101 101 103 103 106 104 99 87 81 65 73 66 69 78 69 70 68 65 59 55 62 70 70 70 67 62 61 57 54 50 44 45 47 50 55 59 56 61 60 56 53 42 48
88 90 96 103 108 112 105 107 103 97 83 77 84 79 79 74 72 76 79 72 63 55 56 49 53 53 61 53 55 51 55 52 46 52 54 56 57 55 56 56 58 54 40 40 37
67 71 77 85 94 100 109 108 105 102 89 94 85 83 81 80 75 77 81 78 74 70 64 59 61 59 54 54 49 57 43 43 43 45 48 55 53 57 57 52 51 47 33 30 29
55 57 60 66 73 82 90 103 109 101 100 102 93 89 87 88 86 86 84 79 75 64 55 60 61 56 58 56 53 53 48 44 48 47 56 51 50 54 50 48 51 32 31 26 25
49 50 51 56 59 65 73 81 85 95 106 116 107 99 104 98 95 92 90 78 78 74 65 65 67 61 63 56 59 56 56 51 53 56 55 51 47 53 45 45 28 29 24 20 25
41 41 46 47 50 54 59 66 72 90 107 117 114 104 106 103 101 98 85 77 71 74 69 63 62 65 63 68 68 63 53 56 56 55 55 49 52 51 42 31 24 21 16 16 23
36 35 37 39 42 47 53 57 65 75 96 116 118 114 110 108 107 102 88 78 74 72 76 75 70 71 75 74 67 58 60 59 50 45 49 51 48 45 26 22 21 14 14 15 19
33 32 32 34 35 37 44 51 56 65 83 102 110 121 111 106 109 104 90 86 81 81 76 80 78 80 80 68 63 61 59 57 53 49 45 46 43 27 26 21 18 14 14 13 16
31 29 28 31 31 33 38 43 50 58 74 83 99 110 114 107 111 105 93 94 88 83 76 70 80 85 74 70 72 70 68 64 57 48 51 50 32 28 23 19 14 10 11 10 15
32 27 26 30 29 30 34 39 46 53 62 75 91 104 109 111 108 107 100 97 89 83 79 81 70 75 78 79 76 71 61 52 50 52 43 29 31 27 23 18 12 7 8 10 15
31 27 23 27 28 29 34 37 42 49 59 70 84 96 102 110 109 105 104 101 92 88 83 80 73 63 56 54 59 52 48 44 38 32 30 33 31 26 26 18 9 7 5 13 13
31 26 21 22 27 29 34 36 40 45 54 64 76 87 94 103 106 105 103 102 97 91 87 79 70 63 59 55 52 46 41 33 31 33 30 39 30 28 24 15 11 5 5 11 14
30 24 20 18 22 29 33 38 38 42 49 59 67 77 86 95 100 99 104 103 100 95 88 79 70 67 65 58 51 42 38 32 35 39 43 41 30 27 23 14 11 4 4 9 13
31 23 19 16 18 24 31 32 33 38 43 51 60 67 76 86 92 95 103 103 101 97 89 81 75 73 63 61 58 46 38 34 34 38 36 34 33 32 24 15 10 6 4 7 11

GFSSW_250_spd_015.txt.gz
Wind_Speed
75 79 83 84 83 82 82 86 81 80 81 77 78 78 79 79 79 77 77 80 76 74 77 81 77 74 73 70 69 66 65 71 77 69 66 72 74 70 67 68 67 68 72 73 73
72 73 78 78 81 82 84 84 89 84 88 84 83 80 75 77 78 77 81 79 77 76 77 82 81 78 73 71 74 68 70 73 74 70 71 72 74 70 72 71 71 72 73 70 70
70 73 76 79 83 87 86 87 87 87 86 86 87 84 84 74 75 71 79 80 80 78 78 79 75 75 74 75 77 72 70 72 73 72 73 73 75 74 72 70 71 74 71 69 68
67 68 71 76 80 81 84 86 86 86 87 87 87 90 87 83 75 79 77 79 81 82 80 79 79 75 75 72 76 75 68 72 72 75 74 74 73 73 72 69 77 74 65 67 71
61 67 70 73 75 78 83 85 86 88 88 88 88 87 93 87 84 89 88 83 81 82 83 80 80 81 75 74 81 76 73 71 73 76 79 76 70 71 71 74 73 67 69 68 70
51 59 66 68 71 73 75 80 86 89 91 91 90 89 87 78 85 90 89 90 86 87 88 87 88 87 81 79 76 77 73 74 76 77 78 72 67 71 74 73 69 65 65 65 70
41 45 50 58 69 76 78 80 81 85 88 89 90 92 86 81 89 93 96 93 92 88 87 85 87 88 82 84 78 77 74 77 76 75 70 71 66 70 71 67 60 62 62 67 66
51 53 55 58 61 64 68 77 81 82 83 87 88 90 85 85 91 90 97 92 95 93 92 92 89 81 68 72 73 71 76 73 77 77 75 68 66 64 63 61 63 62 64 64 58
61 63 65 64 65 69 71 73 76 81 84 83 83 85 77 81 87 92 93 92 95 94 92 93 89 78 70 63 68 72 75 77 79 78 73 61 62 61 60 60 62 63 64 58 61
63 64 68 72 76 77 78 79 78 78 78 82 80 78 77 80 87 90 89 88 90 88 87 87 85 76 68 63 63 77 78 75 77 73 64 60 56 59 59 59 59 59 56 56 61
71 78 79 80 82 85 84 87 84 83 81 81 77 73 69 69 79 86 88 87 88 86 82 85 84 71 67 69 70 72 66 67 75 70 62 60 56 59 59 58 57 54 53 59 64
79 83 89 92 97 98 97 96 91 87 83 84 82 75 74 71 72 77 78 83 81 81 86 85 72 76 75 76 73 66 62 64 73 69 60 57 54 57 56 52 46 49 54 59 64
87 94 103 111 116 112 110 108 106 101 93 88 86 82 81 79 71 78 79 74 75 76 76 74 68 78 78 76 71 66 60 65 68 62 53 55 54 55 52 44 44 52 56 60 64
100 105 109 111 112 114 116 115 114 107 105 88 96 91 91 88 78 80 79 80 73 63 62 61 60 66 72 72 70 67 68 68 65 63 56 54 52 53 46 43 50 56 57 58 63
105 103 97 91 91 88 90 96 107 117 111 105 98 96 96 90 83 83 83 83 77 70 67 53 58 54 58 62 66 67 70 68 66 61 55 53 44 48 40 50 51 54 53 58 63
87 77 74 71 71 72 76 80 85 104 111 117 108 111 98 95 92 89 86 81 81 73 66 65 64 62 55 61 68 69 72 67 61 55 46 47 47 43 42 47 49 50 52 56 57
65 59 57 60 59 63 66 70 75 79 103 119 114 113 105 99 99 96 93 84 74 70 59 61 54 50 49 50 51 54 53 50 45 40 38 54 36 36 40 43 46 48 50 47 43
54 50 49 50 51 54 57 58 64 73 84 113 115 110 109 105 106 100 93 86 75 73 68 65 61 51 49 46 44 46 44 41 43 45 48 46 30 36 39 41 45 48 43 38 34
49 46 43 44 46 47 48 51 58 65 72 88 116 114 107 108 108 100 94 90 82 78 70 65 64 66 62 62 63 55 42 46 49 46 40 26 35 40 42 41 47 43 32 32 33
49 43 39 39 41 42 42 45 49 55 63 78 100 118 114 113 109 103 101 97 90 86 81 73 69 74 75 73 66 60 54 56 47 37 31 35 40 39 37 35 41 30 29 28 30
46 40 37 36 37 37 37 40 44 46 56 69 79 97 114 114 112 103 105 100 97 91 82 74 69 74 77 61 63 62 54 46 41 38 41 42 40 38 34 42 30 23 26 25 28
43 37 33 34 32 33 33 34 38 42 53 63 72 84 95 112 114 109 106 104 98 91 85 79 74 70 68 69 68 64 61 58 54 51 46 45 41 33 35 36 26 20 21 23 21
39 33 29 29 27 28 30 32 36 43 53 61 68 79 86 102 114 111 106 103 100 93 88 83 75 74 67 71 67 56 54 52 49 46 46 44 42 40 34 29 23 19 17 17 16
35 28 25 26 24 25 27 29 32 38 48 55 62 71 77 91 106 110 110 104 101 98 91 85 76 70 58 52 59 60 52 50 51 50 46 42 45 34 27 29 24 19 16 13 11
35 27 22 20 21 22 24 27 29 34 39 47 54 64 72 81 96 108 110 108 105 98 94 85 77 71 67 61 55 51 57 59 55 48 47 45 31 29 32 28 24 18 15 10 7
35 27 20 16 17 19 20 21 26 30 34 41 49 58 66 75 86 101 106 104 107 101 95 88 82 75 71 65 59 51 48 43 39 41 41 39 33 34 32 27 26 19 13 11 5
35 28 20 15 13 15 17 20 24 27 31 36 44 52 60 68 76 89 101 104 105 102 95 90 85 77 72 67 64 58 40 31 29 32 32 28 33 34 32 31 27 19 14 11 2

GFSSW_250_spd_021.txt.gz
Wind_Speed
75 81 84 88 83 82 86 81 81 75 75 80 78 75 78 81 84 82 85 82 82 79 78 78 79 75 73 77 71 63 58 59 62 63 63 61 65 64 65 65 63 66 66 65 67
66 74 78 84 86 91 94 93 91 83 80 80 83 85 82 82 85 85 88 88 88 85 83 84 81 78 71 72 77 71 58 62 68 67 67 65 65 62 63 63 69 63 64 64 67
61 67 73 81 81 84 90 95 91 92 92 90 89 88 86 89 87 84 84 84 87 86 82 84 84 82 78 68 65 68 64 68 70 76 69 67 64 63 65 62 64 63 62 64 64
53 57 64 70 77 82 83 86 93 92 94 89 91 89 90 85 84 80 86 88 82 82 80 84 85 83 80 74 75 65 61 68 70 72 66 67 67 70 64 62 65 61 60 62 66
51 54 58 63 70 75 81 84 86 86 92 89 85 84 84 88 84 85 84 90 88 87 83 82 83 82 80 78 79 65 69 74 71 75 70 68 69 71 66 66 62 59 60 61 68
42 47 51 56 61 66 73 78 83 87 89 88 87 88 84 82 85 87 84 88 92 93 90 88 86 87 84 81 78 74 71 73 71 68 70 69 70 68 65 67 62 62 62 68 69
40 43 46 49 53 57 63 70 75 77 80 85 88 93 90 84 86 85 89 88 89 89 91 92 94 88 88 86 81 80 76 73 71 73 72 75 64 67 67 67 64 64 66 64 67
49 51 53 55 57 59 62 65 68 72 77 81 83 87 85 85 86 86 92 90 89 90 92 94 96 89 82 78 78 79 79 74 75 75 73 75 53 66 73 70 63 59 62 63 66
55 58 61 64 65 68 70 71 71 73 74 77 77 79 79 83 87 91 88 90 93 88 89 94 97 88 81 77 78 75 69 69 66 69 75 75 63 69 72 65 60 59 63 61 68
64 65 67 72 75 76 77 80 81 83 83 83 81 80 77 78 82 85 93 91 91 94 93 91 89 87 82 77 69 73 74 74 76 80 82 79 70 68 69 61 61 60 62 62 65
73 76 78 80 80 85 87 90 93 95 94 95 92 89 86 86 81 81 88 91 90 96 93 90 92 80 74 75 79 77 75 77 75 76 78 76 72 68 63 59 63 60 62 63 61
78 83 86 88 91 96 95 98 101 106 105 105 105 99 97 97 87 85 82 88 87 87 90 95 87 69 79 82 79 75 71 70 72 76 77 75 70 60 57 59 57 57 62 60 57
80 83 90 95 98 101 105 110 114 114 110 112 117 111 110 107 97 96 91 89 88 89 87 87 61 77 84 84 77 69 68 70 69 76 74 71 65 58 57 60 53 56 61 56 56
84 88 93 98 102 106 109 113 116 121 116 116 121 121 117 114 110 107 102 98 93 90 89 85 69 74 73 68 64 63 71 74 71 70 65 69 55 52 60 59 53 58 58 53 51
75 81 90 98 104 106 107 107 108 108 105 110 117 122 120 115 118 119 114 112 103 96 93 76 70 65 63 57 64 62 74 69 66 59 57 54 42 54 58 55 57 58 52 51 50
85 92 95 96 96 97 99 99 98 96 96 99 101 105 115 121 119 123 120 118 111 105 96 88 82 82 65 70 66 69 65 62 55 53 43 50 42 55 58 59 55 53 51 50 48
91 93 95 92 85 79 75 72 72 72 78 85 93 104 107 107 112 120 125 122 117 110 99 93 85 77 69 64 60 57 51 47 44 41 32 41 41 61 60 53 52 52 49 45 37
87 79 72 67 65 66 63 59 57 58 61 64 71 76 87 102 110 112 120 127 121 116 111 98 90 78 68 61 59 54 55 48 41 35 33 37 34 57 53 44 43 48 43 32 25
71 65 58 57 53 52 52 52 50 51 54 57 61 61 65 80 95 106 116 119 124 123 114 102 94 86 77 70 65 59 49 49 37 25 29 34 38 51 39 27 38 36 26 20 25
61 57 53 49 44 43 42 42 42 44 48 53 55 57 57 70 78 84 100 117 122 125 115 107 97 88 80 74 67 58 59 41 30 19 29 32 40 45 29 28 29 26 17 21 26
54 52 48 42 37 36 32 31 33 37 42 47 48 49 52 61 66 73 84 99 117 122 114 105 97 91 87 69 60 57 50 35 26 22 37 41 37 43 27 19 18 15 16 24 26
50 46 45 37 33 28 26 24 25 31 34 38 41 43 49 53 59 66 75 87 101 117 113 110 99 92 77 72 66 62 55 40 33 30 35 30 31 29 19 14 18 20 22 22 23
49 42 41 35 29 26 23 20 22 26 27 31 35 39 43 47 55 60 67 78 87 109 113 111 105 95 93 80 70 57 50 43 34 31 35 30 30 26 20 22 22 23 22 18 19
48 42 37 32 28 25 19 17 18 20 22 27 30 33 36 40 48 57 64 71 79 97 111 109 105 100 87 72 64 58 52 41 35 28 28 31 35 23 23 26 24 26 18 20 18
50 43 39 32 25 21 18 13 14 16 18 23 26 30 31 35 44 53 59 65 75 88 105 108 103 95 88 73 66 60 53 46 39 32 29 37 33 23 31 29 25 23 20 20 17
53 49 43 36 28 21 16 12 10 11 14 20 22 24 27 33 41 48 53 60 73 85 100 107 102 93 88 75 67 62 52 47 45 43 43 45 36 33 32 29 31 25 21 22 17
53 53 48 39 31 23 15 10 10 10 13 16 17 18 23 30 37 44 50 58 68 81 98 105 98 92 87 76 70 63 56 50 49 47 47 46 38 36 35 33 31 20 23 24 17

GFSSW_250_spd_024.txt.gz
Wind_Speed
60 73 81 80 80 79 74 72 70 71 70 67 72 73 80 81 83 84 84 85 78 82 78 75 75 74 74 73 68 65 61 59 65 70 71 67 62 55 56 53 57 58 59 58 60
55 65 74 73 79 80 77 76 78 77 77 75 74 76 74 76 79 79 85 86 82 83 84 82 81 79 73 74 69 70 65 68 73 73 73 70 64 55 58 58 65 63 64 60 55
57 58 63 72 79 83 80 83 85 85 86 84 81 80 79 80 81 81 82 83 83 85 84 86 89 87 83 82 77 75 69 72 73 71 71 72 70 65 61 60 68 67 60 56 58
58 60 62 65 72 85 91 92 90 91 89 91 89 91 95 95 86 82 89 88 86 86 86 84 89 88 89 86 86 81 75 74 74 76 69 61 64 66 61 60 74 69 60 57 59
54 58 62 66 69 73 78 83 91 90 92 95 99 96 100 101 95 90 90 92 91 92 92 92 93 93 89 91 91 83 84 77 73 79 74 68 62 58 61 67 73 66 59 55 61
43 50 54 58 63 67 72 76 82 90 92 95 98 99 102 101 92 98 89 92 95 96 95 96 93 89 86 87 84 84 79 74 69 74 75 70 62 62 64 73 69 61 60 63 61
43 46 49 53 57 63 68 71 74 78 83 89 96 94 95 98 98 98 96 94 92 94 96 97 96 90 80 84 77 76 77 76 71 70 70 74 60 66 70 76 68 66 66 65 62
53 54 56 58 61 64 66 68 69 72 77 81 84 88 91 92 93 96 105 101 97 93 97 99 95 92 91 87 82 79 77 72 71 76 79 82 60 72 75 75 70 70 71 67 61
58 60 63 66 68 69 71 72 73 74 76 77 79 81 82 86 90 96 100 103 101 97 94 97 102 99 94 89 87 81 74 74 78 79 72 77 64 73 76 77 74 74 71 66 60
67 70 72 74 76 78 80 80 82 82 83 83 82 82 83 81 85 92 94 97 99 101 101 97 101 104 101 95 81 76 80 81 80 86 83 84 72 79 76 76 75 71 65 59 63
71 74 79 84 87 88 90 91 93 92 92 92 92 90 88 89 91 89 90 94 95 95 97 97 104 109 82 81 82 87 85 79 77 78 78 77 73 69 74 65 64 61 57 61 64
70 75 80 86 91 95 98 101 103 102 99 102 104 99 99 100 93 93 93 93 94 96 95 104 108 78 83 90 87 87 85 76 73 76 84 77 73 69 70 65 64 59 57 61 58
74 79 84 88 91 96 103 108 110 112 108 112 112 110 111 110 103 102 102 99 95 95 97 101 75 80 88 88 88 83 84 78 74 77 84 73 69 63 64 62 62 59 57 61 59
64 71 77 82 90 97 102 104 112 114 114 119 121 120 116 115 114 112 112 109 106 100 100 100 77 86 84 80 74 75 73 74 80 84 72 77 60 55 59 58 56 56 60 61 58
65 73 80 84 89 89 91 96 99 104 105 106 118 125 126 123 120 119 118 117 111 110 109 89 91 85 80 61 70 63 71 74 77 75 67 60 57 51 56 55 53 54 58 55 52
73 80 83 87 90 92 93 94 94 95 97 96 96 109 118 122 125 125 121 118 119 119 114 101 100 94 73 76 72 76 71 73 71 64 51 48 56 44 50 53 52 51 47 48 48
81 85 84 79 75 71 69 71 72 76 78 85 88 93 101 104 102 110 118 126 124 120 113 108 109 97 88 82 77 72 68 62 55 48 36 47 44 43 45 50 48 45 41 43 42
85 78 67 63 60 58 57 57 57 59 64 65 71 79 89 97 97 98 92 97 110 124 116 120 115 100 93 84 74 66 61 55 50 48 39 37 28 38 43 45 41 36 38 40 36
79 65 56 53 50 51 49 49 49 50 53 55 58 65 73 77 90 98 96 95 94 102 118 120 111 106 99 88 82 71 66 54 53 43 29 27 30 37 34 38 33 30 30 28 32
67 55 49 49 45 46 43 41 42 42 43 47 50 54 59 65 77 83 89 95 96 94 92 101 105 107 99 96 91 81 71 66 55 38 27 28 34 36 30 33 30 23 23 24 25
60 53 48 46 44 39 36 32 34 34 35 39 42 44 50 55 62 68 72 82 92 95 91 89 89 104 105 102 88 84 75 60 48 33 26 27 34 29 29 29 25 21 20 20 20
58 53 47 42 40 31 27 25 26 25 27 31 34 37 44 48 53 57 58 66 76 83 93 93 82 97 104 92 88 81 76 63 46 35 33 31 33 30 37 29 28 20 16 17 19
60 52 44 35 31 26 22 21 19 18 20 23 26 30 36 40 45 49 51 59 65 72 84 90 88 90 94 102 99 86 75 60 56 43 37 36 34 42 41 31 26 17 18 16 20
61 48 41 35 30 24 20 18 15 14 15 17 19 24 28 33 39 44 46 53 55 62 72 84 92 85 100 96 85 81 73 63 52 37 34 41 41 47 33 32 22 20 17 17 20
61 49 42 40 33 27 22 17 14 14 11 12 14 19 23 28 34 37 41 46 48 58 65 74 89 95 99 98 88 81 76 67 50 41 40 43 47 40 37 30 24 18 17 20 22
69 60 47 44 37 31 25 17 16 10 8 10 12 16 20 25 30 33 38 42 46 56 62 72 93 101 97 94 86 80 70 60 52 48 47 47 47 41 34 28 23 18 20 23 24
83 69 57 52 43 34 27 20 14 10 7 7 10 14 18 22 26 30 36 39 40 52 61 72 90 100 101 96 88 80 74 64 57 52 51 50 45 37 32 26 22 21 24 25 19

GFSSW_250_spd_027.txt.gz
Wind_Speed
56 65 65 75 81 81 79 78 81 88 86 89 81 82 84 86 85 84 80 81 83 79 76 77 72 75 74 73 69 70 70 67 65 61 62 64 61 59 54 58 59 63 60 58 59
52 54 62 67 76 81 82 81 81 85 85 89 86 85 90 88 88 81 88 84 84 85 83 81 81 78 78 77 75 74 71 70 70 67 66 66 66 64 59 63 63 61 69 66 65
54 56 56 59 69 79 84 87 82 87 84 83 81 82 86 86 81 82 81 87 89 88 88 89 86 87 80 80 79 81 71 72 72 73 73 70 71 70 69 64 67 63 63 67 69
56 58 60 63 63 71 76 85 92 83 87 85 85 85 83 85 82 76 76 81 83 85 89 86 85 86 83 81 82 80 77 81 78 75 75 75 73 73 75 68 69 69 70 63 65
46 57 64 66 67 68 71 75 90 94 93 92 88 90 89 88 86 83 85 88 88 87 85 87 85 81 79 86 87 78 78 85 79 79 77 79 76 76 75 73 71 74 73 67 63
39 44 51 60 68 72 74 74 77 83 89 92 93 90 95 91 94 92 89 94 95 93 88 91 89 88 83 84 85 79 82 80 80 79 79 82 76 77 76 72 73 73 69 65 60
47 48 50 53 59 66 70 75 80 82 85 87 91 96 95 95 98 98 98 99 101 98 99 100 95 92 84 84 85 88 89 84 80 82 86 90 75 71 73 75 72 69 68 60 63
52 54 58 60 61 63 66 72 77 81 85 87 89 93 97 99 101 98 101 103 104 105 107 104 105 101 96 94 91 90 89 82 76 81 81 86 63 71 73 77 72 69 70 65 62
63 64 65 67 70 71 72 72 74 77 82 87 91 93 93 94 98 98 102 104 103 103 105 111 108 108 104 98 99 90 83 77 78 81 81 85 67 70 76 78 76 71 66 66 67
65 70 73 74 77 79 81 83 83 82 81 83 85 87 96 94 97 100 100 102 106 105 105 105 106 109 106 104 92 80 82 84 84 82 90 88 75 72 80 82 80 73 69 70 67
68 68 70 75 82 85 90 92 92 93 90 93 91 89 88 91 92 97 98 101 101 102 101 105 113 108 98 92 87 84 93 87 83 83 96 90 83 74 79 83 78 80 71 67 67
65 72 74 78 83 86 90 96 100 101 98 102 101 98 98 100 93 91 95 94 98 100 104 109 105 85 86 88 96 94 98 86 81 81 89 89 92 84 81 79 76 72 68 68 67
50 56 64 72 79 91 98 99 101 108 105 109 111 109 108 109 104 102 102 98 96 96 99 104 85 87 90 91 95 93 93 83 84 84 90 88 89 74 71 74 73 71 69 63 63
58 63 68 73 76 82 87 96 105 108 109 117 118 117 118 118 115 112 110 107 103 101 102 100 83 90 84 89 85 83 79 80 81 83 83 88 77 70 67 68 70 67 62 64 61
62 69 75 81 82 82 84 85 87 89 92 111 114 117 125 125 124 120 119 117 113 110 112 94 96 89 92 76 77 70 75 74 78 75 78 73 71 56 65 67 68 67 65 61 61
65 74 82 80 82 84 86 85 85 88 91 95 92 95 111 116 126 125 123 123 121 120 118 103 105 99 90 83 84 75 77 73 72 69 64 56 58 45 53 56 59 60 58 57 58
74 83 78 74 69 68 65 66 72 79 84 89 89 95 99 97 105 113 122 128 128 127 123 107 115 105 99 94 84 82 77 73 71 63 49 46 51 43 48 44 48 53 53 54 54
82 75 67 59 54 51 49 52 56 59 60 66 70 77 85 92 103 103 103 107 118 134 128 118 120 108 98 94 86 83 81 73 62 55 53 49 44 40 39 41 43 44 45 44 44
78 67 55 50 47 43 41 41 42 41 44 48 55 62 68 78 83 89 98 108 104 107 121 124 121 111 109 99 94 85 89 61 70 63 56 44 33 42 39 39 40 39 31 31 30
74 65 56 48 43 39 36 35 34 36 37 43 48 52 59 65 69 73 87 92 100 100 104 104 110 113 110 100 97 96 74 83 75 66 52 44 34 41 43 34 31 29 14 21 22
70 62 56 46 38 34 32 28 28 30 32 35 38 42 48 53 58 65 70 74 84 93 99 93 89 97 107 104 100 91 88 80 75 68 59 49 37 46 40 31 27 18 13 20 23
74 61 53 45 37 30 26 21 19 23 26 29 31 35 39 43 48 52 57 63 71 75 83 89 85 84 93 103 99 91 86 80 74 62 52 41 45 39 30 28 26 17 18 23 22
80 67 55 46 37 30 26 21 15 15 17 21 23 26 29 33 38 42 48 53 60 62 68 79 79 81 82 88 85 95 92 80 79 71 58 47 47 43 32 26 19 20 22 21 21
85 77 61 49 40 34 28 22 15 12 12 14 16 20 23 27 31 35 39 42 47 51 58 61 76 80 83 74 79 83 87 83 81 74 58 47 56 38 33 26 25 24 24 13 17
87 82 71 60 46 38 32 24 17 11 8 10 12 14 18 22 26 28 33 41 41 45 50 55 63 82 83 76 84 78 80 82 80 71 56 54 45 39 32 28 34 30 27 20 21
88 87 79 69 56 45 36 26 20 14 8 6 7 10 13 17 21 26 30 34 37 42 46 52 63 78 80 83 81 76 82 84 83 73 57 54 46 43 35 31 36 32 24 21 16
84 88 86 78 63 51 41 32 24 17 11 5 3 7 10 14 17 22 26 31 35 39 44 52 61 71 82 84 79 77 78 81 81 72 57 55 51 45 40 36 43 35 31 19 15

GFSSW_250_spd_030.txt.gz
Wind_Speed
58 60 62 67 70 75 77 82 86 87 81 81 81 85 90 83 82 84 83 85 84 83 86 84 81 79 79 80 75 73 69 70 69 63 58 64 66 64 59 56 56 59 57 54 57
54 57 59 63 68 71 75 79 81 83 89 88 82 83 85 92 90 83 84 88 89 85 82 84 82 86 80 80 81 81 72 66 70 70 63 62 68 73 69 65 63 62 62 61 64
47 54 58 60 63 70 74 78 82 82 86 89 88 88 85 88 95 92 85 85 88 89 86 86 83 83 84 83 79 77 73 76 74 75 76 71 70 71 73 73 66 64 64 64 67
42 49 55 61 62 65 68 76 79 86 88 94 88 91 90 88 94 92 91 90 84 88 88 89 90 86 82 82 89 85 74 78 77 77 79 78 75 73 73 68 69 68 69 69 75
35 42 51 59 64 67 68 70 74 82 87 94 97 91 88 91 87 97 98 92 91 89 91 92 92 92 87 89 89 80 82 85 82 83 80 80 76 73 74 72 74 73 74 72 72
40 43 45 49 58 67 72 74 75 76 79 87 95 100 101 90 91 93 89 96 97 97 95 97 95 97 93 94 90 84 88 87 84 82 81 81 74 76 70 73 75 74 74 76 72
51 51 52 54 55 56 63 74 79 80 82 82 87 97 97 98 103 97 92 94 97 96 91 93 94 93 87 87 86 92 94 91 76 70 67 74 76 76 70 77 76 77 78 77 73
59 61 62 63 63 64 65 66 69 78 86 87 88 88 88 95 101 103 99 98 97 98 97 96 97 91 87 86 88 87 92 83 73 79 75 83 79 73 79 84 81 79 79 79 75
64 67 69 71 72 73 74 75 75 74 75 81 90 92 90 94 96 100 105 103 104 101 102 101 102 97 94 90 88 86 84 81 79 81 82 90 87 73 81 84 81 79 74 75 71
56 64 72 77 80 81 84 84 83 83 82 82 83 84 92 94 98 96 99 102 104 108 105 105 106 104 98 91 85 90 96 89 86 87 90 93 91 77 79 82 79 77 75 75 73
46 52 63 75 82 85 88 91 93 93 90 92 93 88 87 91 95 97 101 101 102 102 103 107 111 104 93 96 95 97 94 93 92 92 95 99 98 82 78 78 75 73 76 76 75
50 49 53 59 70 84 93 96 99 102 98 99 102 99 97 98 92 93 95 100 102 102 104 109 108 93 96 100 103 99 96 91 88 90 88 95 95 87 80 76 79 77 75 81 77
55 52 57 62 70 78 88 102 105 105 105 108 110 106 107 106 102 99 99 100 100 102 103 107 89 91 98 101 97 91 87 90 89 89 86 91 93 84 80 79 76 78 76 74 75
58 57 61 67 71 77 79 84 89 97 102 110 114 115 114 114 110 111 107 105 103 101 106 104 89 91 96 96 91 89 84 90 87 88 81 92 80 74 75 73 73 72 74 72 70
62 62 66 80 78 74 73 72 75 78 90 102 106 107 114 118 116 117 115 113 109 109 112 93 97 100 98 81 87 76 83 85 83 82 80 78 76 58 69 64 65 63 62 62 63
63 69 82 78 74 72 65 66 70 73 85 89 89 95 102 112 116 116 119 120 118 117 114 100 102 101 93 87 88 79 79 84 80 80 73 58 67 44 49 52 47 46 47 49 50
65 77 80 72 63 50 47 49 54 63 70 80 82 86 86 97 103 107 118 122 121 123 118 109 114 106 99 93 89 84 81 79 79 70 53 50 53 36 39 36 30 36 39 43 46
71 77 76 68 59 46 37 37 43 48 50 58 65 75 82 94 99 102 103 104 114 124 124 117 120 111 100 97 93 92 85 80 73 63 53 46 38 39 39 35 32 35 37 42 45
73 75 72 60 50 45 38 32 32 35 41 48 57 62 68 78 81 93 99 98 101 106 113 118 121 117 115 107 103 93 98 75 76 71 67 54 52 44 39 40 37 37 37 38 40
76 79 75 57 47 38 35 32 29 28 30 36 46 52 55 60 68 75 81 93 102 103 99 104 107 114 112 112 109 106 92 88 81 75 66 54 54 48 41 43 39 34 34 36 35
77 80 77 62 51 41 35 29 26 25 26 28 32 40 47 51 56 62 68 77 82 93 98 99 90 97 106 109 107 109 100 97 84 79 68 59 57 51 46 41 45 30 34 32 26
77 86 84 74 57 47 38 30 24 20 21 24 26 28 34 40 46 54 61 63 67 77 82 92 95 94 88 98 106 107 103 96 89 77 69 64 60 52 47 39 40 31 30 24 16
82 83 85 83 71 52 44 35 25 20 18 20 21 24 27 32 38 43 49 56 58 61 66 74 78 87 92 91 87 95 95 95 88 81 70 64 58 56 47 43 40 28 29 22 17
78 81 88 85 75 59 49 39 29 22 18 15 15 17 20 24 29 34 37 38 44 49 55 58 65 73 82 92 91 89 87 87 86 83 72 63 63 55 49 47 42 31 29 22 17
79 78 83 86 83 68 52 41 33 25 20 13 10 11 13 17 20 23 26 31 35 42 47 52 54 58 69 85 88 84 81 85 81 74 73 63 61 58 50 52 37 34 29 24 19
78 77 82 86 86 77 61 46 35 29 22 17 10 7 7 9 13 17 21 25 29 33 37 40 45 52 60 71 77 76 77 75 77 73 70 66 62 63 53 49 38 35 34 27 24
80 75 76 80 84 82 69 53 39 31 24 19 13 7 5 4 7 10 15 19 25 31 32 35 43 51 54 66 76 69 69 66 67 71 68 66 66 61 53 55 40 32 30 25 22

GFSSW_250_spd_033.txt.gz
Wind_Speed
56 60 65 69 73 77 84 93 98 94 90 91 90 92 93 95 98 88 86 90 96 93 91 89 88 87 83 83 75 71 71 65 65 66 63 66 63 61 61 63 61 54 55 54 56
47 56 60 65 72 75 78 80 85 92 95 96 99 97 89 90 94 96 97 94 88 92 91 91 93 91 91 82 83 81 74 71 74 71 70 69 68 66 67 67 67 66 56 59 60
30 42 51 59 66 71 73 75 79 83 87 89 90 93 96 90 89 88 95 98 98 88 91 95 97 100 90 88 85 85 77 75 79 82 80 76 74 73 72 71 73 64 62 66 65
26 28 37 46 57 65 69 72 74 78 82 84 91 91 97 94 92 88 90 91 88 95 90 85 86 93 93 92 90 87 85 87 81 81 82 83 84 78 73 72 73 71 69 70 70
34 34 36 40 50 57 64 69 73 75 79 83 86 90 92 91 95 97 93 90 88 89 94 95 92 91 93 95 97 86 81 85 84 90 87 85 82 77 75 71 70 72 73 73 75
41 42 45 46 49 54 61 68 73 77 78 80 85 86 88 87 94 100 98 98 94 93 92 96 100 102 94 90 91 86 96 87 83 78 77 79 79 82 72 71 71 73 76 76 76
44 47 51 56 58 60 62 66 70 77 81 83 83 85 86 89 94 98 95 92 95 96 98 96 98 104 100 96 89 88 93 92 83 78 77 81 76 68 69 70 71 72 71 69 69
43 48 54 58 65 69 71 72 72 74 78 85 88 87 82 93 94 96 101 97 97 96 97 102 101 97 105 103 97 95 94 86 74 76 75 82 70 75 71 75 76 75 71 71 70
46 48 49 53 62 71 77 82 81 80 81 80 85 89 91 94 95 96 98 100 103 107 102 101 100 96 98 104 104 95 93 86 71 75 80 86 80 74 76 80 81 78 76 73 72
49 52 53 50 52 57 72 81 88 90 88 87 87 85 92 98 99 97 98 99 101 107 113 112 109 103 96 90 84 90 92 82 77 87 93 87 83 70 75 80 79 74 73 73 71
55 59 60 61 58 55 61 74 87 93 97 97 97 94 94 95 97 102 104 104 101 102 108 113 114 106 98 100 96 95 90 86 82 91 94 84 84 75 76 81 80 77 77 78 78
57 61 67 65 64 64 63 70 82 90 95 105 106 103 103 102 97 96 101 104 106 104 106 111 104 98 100 103 105 98 91 85 89 96 97 89 88 76 75 78 81 83 81 80 79
61 71 68 64 65 68 74 74 75 82 88 100 105 109 110 107 103 103 103 103 104 107 110 109 96 97 100 101 102 100 101 97 95 99 95 90 93 81 82 84 85 78 79 78 78
67 73 67 64 67 82 76 68 68 67 71 86 97 106 111 112 111 111 110 108 106 106 110 106 95 100 103 99 95 90 93 93 93 97 89 100 84 75 77 75 76 75 67 68 70
71 71 64 63 73 84 78 70 58 58 68 75 81 90 98 105 114 115 114 111 110 111 110 94 98 103 106 95 98 89 90 91 90 88 91 88 76 63 71 68 70 64 63 62 60
72 69 63 70 73 75 63 47 42 45 55 65 73 77 81 90 99 107 114 114 115 115 109 101 101 105 99 93 99 91 90 94 92 87 81 72 73 54 59 62 60 54 49 42 41
71 66 63 72 72 66 57 45 37 36 44 52 61 71 78 85 86 93 102 109 115 118 114 109 111 105 98 95 93 89 89 92 92 89 70 64 66 45 50 49 44 40 37 32 32
70 64 67 74 74 62 50 44 36 29 32 40 52 60 70 78 86 90 93 97 104 114 108 111 112 105 103 99 95 93 91 87 80 74 62 59 49 38 48 40 32 32 25 27 28
73 65 68 76 77 63 48 39 33 28 28 29 40 49 55 62 77 84 91 93 96 98 93 104 102 109 113 104 101 97 92 81 79 76 72 59 47 45 43 34 25 28 24 30 23
73 73 72 76 80 68 51 39 31 27 24 25 30 40 49 52 59 69 80 89 92 89 86 94 97 109 110 105 105 104 92 94 85 79 69 60 53 46 49 40 34 31 23 27 24
71 73 72 75 80 75 57 43 33 25 23 21 21 27 35 45 52 57 63 71 82 91 89 89 85 99 100 105 105 99 100 99 92 85 74 65 54 55 50 44 34 30 31 23 23
75 79 72 75 82 80 64 46 35 30 22 19 16 18 24 33 42 49 53 58 66 74 86 91 87 95 92 93 96 101 103 98 96 88 82 70 58 57 53 47 37 27 33 27 26
75 79 78 77 79 83 72 53 39 32 25 19 17 17 20 25 30 37 45 50 53 56 65 70 74 89 90 93 93 91 93 98 94 93 84 75 64 62 58 50 39 32 33 31 25
72 75 82 80 78 82 79 61 45 36 28 21 17 15 16 18 22 28 32 39 43 49 53 54 62 72 83 93 89 87 89 91 92 86 79 70 69 68 64 57 39 35 34 29 24
74 79 77 76 79 81 83 66 49 41 32 24 19 15 11 12 12 16 23 31 37 43 46 48 50 58 66 76 81 80 80 80 76 78 72 67 74 69 67 54 42 35 36 26 22
73 79 79 80 77 77 80 73 53 43 35 27 21 16 14 10 8 10 15 21 27 32 37 40 44 49 52 57 62 72 77 64 62 63 64 69 68 71 66 50 41 33 38 27 21
74 77 82 76 77 74 76 78 61 47 38 30 24 20 16 10 6 8 10 12 17 23 28 33 37 42 43 43 49 54 67 65 57 54 59 67 64 64 60 39 52 37 31 25 24

GFSSW_250_spd_036.txt.gz
Wind_Speed
56 60 62 64 66 70 76 85 97 100 90 90 92 90 88 92 102 96 96 99 98 92 89 88 88 89 87 90 90 77 68 66 64 63 65 74 66 65 63 62 61 58 62 54 52
42 53 59 63 65 70 73 78 86 91 98 97 100 92 91 94 96 98 98 103 101 100 96 98 96 98 93 94 93 89 81 77 77 73 67 69 65 66 66 64 64 66 62 64 65
25 33 44 53 63 68 70 77 81 84 92 100 105 108 101 96 95 95 96 99 104 107 99 99 105 102 94 95 93 93 84 77 79 82 83 74 69 67 66 64 67 68 68 68 73
27 28 32 37 47 59 68 72 79 84 89 93 103 107 104 97 99 97 97 98 100 105 103 103 98 103 101 99 95 101 93 89 82 83 81 77 78 73 76 73 75 76 72 76 74
33 36 38 40 41 44 52 65 75 81 86 92 98 107 105 106 100 108 108 105 102 101 103 104 104 104 101 96 99 100 87 95 91 90 89 88 86 79 78 77 76 75 77 73 73
37 41 44 46 48 50 53 55 60 71 84 90 93 97 103 103 111 115 112 110 112 109 108 106 100 102 106 107 101 90 96 96 93 90 88 88 80 80 74 80 81 81 80 80 79
36 38 42 48 54 57 59 62 64 66 71 81 90 94 94 97 103 105 109 108 109 108 108 109 107 105 101 102 103 104 103 96 88 82 81 86 82 78 76 77 75 74 75 71 72
38 40 43 48 51 57 62 66 71 75 76 79 84 89 90 100 99 100 103 103 105 106 107 107 112 110 104 97 97 96 99 98 79 81 80 85 74 71 72 73 80 83 78 73 71
38 40 43 45 51 54 59 65 71 76 85 87 88 89 92 98 102 101 101 103 105 104 107 111 112 108 108 100 97 94 89 87 81 84 88 91 70 72 75 79 82 79 73 73 69
38 40 42 46 52 57 60 62 70 74 84 93 97 95 97 101 102 102 104 103 104 107 107 109 111 107 105 104 94 94 91 85 85 90 95 99 85 80 80 82 83 77 76 72 71
40 44 50 51 57 61 65 64 66 73 81 91 97 104 107 104 101 104 108 107 106 105 107 109 110 101 96 99 95 95 94 91 90 92 91 93 92 86 86 85 86 76 72 73 72
45 50 54 59 65 67 66 67 70 75 77 97 93 98 107 112 106 106 108 109 111 110 110 109 101 101 102 104 103 99 96 87 88 90 89 90 91 85 79 73 80 73 74 78 71
48 53 59 64 68 67 63 65 77 68 58 70 83 93 96 105 110 115 114 112 112 114 112 109 102 104 104 105 102 100 100 100 96 95 88 90 82 81 77 74 74 73 73 74 75
49 56 64 65 63 59 63 71 79 80 68 56 65 75 86 94 103 117 118 115 112 110 113 109 105 105 105 102 101 98 100 102 107 106 99 102 85 82 76 75 76 76 74 73 76
53 57 59 61 56 56 65 73 72 57 48 51 53 61 71 79 91 103 114 117 115 114 110 100 106 112 108 103 103 96 98 98 99 99 97 93 93 72 81 78 78 80 75 73 72
54 59 60 58 54 59 64 66 58 45 40 42 48 53 64 72 82 88 98 106 117 119 109 105 108 111 108 109 106 101 100 98 95 94 91 85 82 67 72 77 77 71 63 61 60
54 61 61 59 57 62 65 62 54 44 35 33 38 46 53 66 78 84 87 96 106 117 115 115 113 107 104 105 104 102 104 102 97 90 76 82 73 60 64 69 64 56 51 50 49
58 63 63 62 60 64 68 61 50 41 33 29 32 40 48 54 68 80 85 85 95 103 112 114 116 111 106 106 101 100 100 99 95 91 84 82 67 58 54 57 52 47 45 42 37
58 69 69 66 64 68 70 56 46 39 35 28 27 33 40 47 55 62 78 85 89 85 92 104 113 112 110 109 104 100 94 89 89 86 84 75 66 60 59 55 49 39 35 33 29
62 67 76 72 68 67 71 62 47 37 31 27 22 26 29 39 47 52 64 76 81 81 81 88 92 106 111 111 106 102 97 95 89 84 74 63 57 49 54 49 39 27 29 27 26
60 66 72 79 71 68 71 68 51 41 32 26 19 16 22 28 38 43 51 58 65 76 79 78 81 93 104 109 105 103 102 99 95 86 75 63 50 48 56 47 36 30 34 29 25
58 66 70 75 71 67 67 65 52 45 39 31 24 15 12 17 27 34 42 46 53 62 75 74 80 89 87 90 98 103 101 98 98 87 75 66 54 56 58 43 38 35 32 28 26
61 65 68 71 76 72 68 69 59 49 41 33 27 21 11 11 16 24 31 38 45 49 57 61 72 84 85 79 85 91 95 95 89 84 77 68 53 72 60 48 44 39 34 29 30
60 65 69 69 76 68 66 69 70 54 42 37 30 24 17 9 14 19 23 30 36 41 48 51 62 69 79 78 77 78 80 83 83 77 69 64 69 66 60 54 47 38 33 28 28
63 65 63 66 73 73 68 65 68 62 43 38 33 27 20 14 11 12 18 24 30 34 38 42 48 55 63 67 69 70 69 73 70 70 69 68 68 66 62 57 50 45 37 32 30
63 69 65 65 70 73 68 64 63 64 50 38 35 30 21 16 12 10 13 15 22 27 30 33 39 43 50 56 62 69 70 68 62 66 63 68 69 72 62 53 50 48 43 34 33
63 65 60 63 68 72 70 66 62 62 56 43 39 34 27 18 13 9 7 9 14 21 25 28 34 37 40 43 53 61 65 67 60 58 58 61 72 66 59 49 45 41 38 28 31

GFSSW_250_spd_042.txt.gz
Wind_Speed
26 47 64 68 67 70 73 73 73 77 83 85 86 88 90 94 98 95 90 89 88 96 95 97 100 97 95 85 83 88 85 78 69 71 71 72 74 68 66 68 64 62 58 57 56
9 24 46 64 66 66 68 71 73 74 77 83 86 88 91 90 90 98 98 97 92 96 97 97 100 103 95 99 87 81 81 81 85 84 87 79 72 66 62 63 69 70 69 64 62
13 14 22 41 62 63 64 67 71 74 76 78 84 89 91 89 90 90 104 101 102 100 100 103 107 101 100 101 99 94 84 87 91 93 89 84 82 79 74 73 75 74 71 68 66
22 23 24 27 40 57 63 65 68 72 74 77 81 88 94 99 97 95 95 101 107 106 103 103 103 106 106 107 99 92 93 85 86 94 95 93 88 79 79 78 79 80 72 70 67
27 30 33 35 37 41 50 58 66 69 72 76 80 83 89 100 107 99 104 104 101 104 105 111 110 107 106 107 111 105 94 94 91 93 94 98 88 86 86 84 81 77 77 75 73
32 34 36 40 44 47 49 52 56 62 68 74 79 83 87 93 98 109 108 110 109 106 107 105 114 119 110 109 111 104 106 107 109 102 98 97 90 94 85 85 79 82 82 79 76
32 36 38 41 42 45 52 57 60 62 65 68 73 81 89 93 95 100 103 113 118 114 113 112 115 114 117 116 113 106 108 110 106 103 101 101 95 83 83 87 87 82 77 77 80
36 39 42 43 47 48 51 53 58 63 69 73 75 77 81 88 96 101 103 106 113 115 120 123 123 118 115 111 110 113 117 114 109 110 108 111 92 90 93 93 90 91 87 87 82
33 35 38 44 48 49 52 55 58 62 67 73 78 83 87 89 93 96 106 111 111 112 116 125 126 126 124 119 114 111 108 106 108 109 112 114 100 100 101 100 94 92 90 86 81
23 24 26 28 32 37 43 48 54 60 66 72 79 86 92 96 98 100 102 106 113 118 117 122 123 126 125 124 119 116 115 113 109 106 109 103 92 96 101 101 97 95 90 83 78
24 24 26 31 33 35 41 48 56 63 67 74 81 89 95 100 105 110 110 111 113 116 121 124 124 120 125 127 133 126 124 117 120 114 110 104 99 95 95 92 90 86 83 80 76
22 27 30 30 32 40 45 51 57 63 66 70 78 86 92 100 111 119 118 118 119 119 121 124 121 121 124 126 123 129 128 128 124 122 119 112 103 97 95 89 87 87 84 83 80
22 26 28 31 39 44 48 54 60 64 67 68 71 74 84 93 105 111 115 120 120 121 123 124 119 123 126 126 125 124 123 122 123 126 122 118 111 109 97 94 93 90 92 90 83
25 28 31 36 43 48 51 56 61 66 66 65 67 72 75 74 77 84 97 111 117 119 125 126 122 121 123 124 127 124 123 119 119 118 114 116 108 108 101 96 93 91 84 79 77
28 30 35 41 48 53 53 55 58 63 64 61 65 69 67 64 62 69 74 89 107 112 120 118 120 126 122 117 119 120 123 120 117 115 113 107 104 89 94 94 85 79 77 76 74
32 36 40 43 45 51 50 50 56 58 58 61 64 51 52 47 43 56 61 70 87 104 111 110 117 122 123 120 116 111 113 117 115 109 104 100 102 78 79 78 79 78 74 72 73
35 39 42 44 47 47 50 51 57 59 57 57 61 49 48 46 39 42 53 59 66 86 102 104 107 113 116 118 116 112 107 105 106 109 96 96 97 70 74 76 77 76 72 70 68
38 38 39 42 42 46 49 50 55 58 57 60 60 50 44 45 35 37 42 50 54 65 83 93 102 102 109 108 112 111 109 105 99 98 94 94 81 68 69 71 74 74 71 68 62
36 39 39 43 45 49 51 49 54 59 56 56 61 53 46 40 37 30 36 40 47 52 63 80 91 94 98 105 107 108 106 104 103 94 88 81 75 72 71 71 74 72 66 60 59
36 43 48 52 49 52 53 54 56 59 56 56 56 49 45 38 33 29 27 32 38 45 54 67 82 90 91 98 104 106 104 103 102 94 84 76 74 70 71 74 76 64 57 54 50
39 44 51 53 57 58 57 58 61 61 55 57 55 47 41 36 32 26 25 24 30 36 44 56 66 85 85 90 96 99 100 98 95 94 86 76 70 68 69 69 69 62 53 50 49
43 48 54 52 56 60 59 58 62 63 56 56 55 46 39 35 29 26 21 21 24 30 38 48 57 71 79 83 85 86 91 92 87 88 87 79 69 64 62 61 62 60 54 50 49
48 50 52 49 56 62 63 65 62 61 59 58 58 53 42 35 29 22 19 17 20 24 31 39 51 57 65 73 76 76 81 86 86 83 83 81 67 63 59 57 58 53 45 43 40
48 50 50 50 57 60 62 66 66 63 61 58 59 58 47 35 28 21 17 14 16 19 25 31 41 48 54 60 68 69 68 71 76 74 76 73 71 65 59 56 56 40 37 35 33
46 49 53 55 57 58 57 62 65 63 66 61 60 59 50 38 25 18 16 13 12 16 18 24 32 41 47 52 58 61 63 60 60 69 68 75 74 69 64 60 52 40 38 36 36
47 49 52 53 56 58 56 61 66 62 66 63 62 60 49 36 24 16 13 11 8 11 14 22 29 35 41 43 46 54 56 51 50 60 66 68 72 71 70 64 57 46 41 38 39
49 47 48 52 54 57 55 57 62 63 63 60 61 60 51 38 24 15 10 8 4 4 9 16 22 28 35 39 45 50 57 56 55 54 61 65 75 80 79 72 62 51 45 42 42

GFSSW_250_spd_045.txt.gz
Wind_Speed
10 14 44 64 69 72 71 74 73 72 73 78 80 79 85 84 86 94 89 91 90 90 92 98 97 97 92 92 90 89 84 78 79 84 89 88 79 75 69 69 67 69 71 68 67
10 9 17 44 58 67 71 71 74 73 73 74 80 81 83 84 86 89 99 96 95 92 93 92 94 99 100 98 99 98 88 85 88 90 94 95 88 84 76 76 78 76 68 65 65
15 14 14 20 40 54 67 73 72 73 75 77 80 88 86 89 92 89 94 100 101 97 96 97 98 98 98 97 96 93 84 84 89 90 90 91 86 86 84 77 74 72 72 71 66
21 21 22 22 26 37 51 69 73 73 74 76 80 82 85 92 95 96 98 98 100 101 104 101 104 102 100 102 104 98 93 94 90 92 90 91 86 82 85 82 68 67 65 65 62
24 26 28 30 31 32 38 51 66 74 74 73 76 81 85 86 91 94 100 103 103 102 103 108 108 107 102 97 102 102 99 97 102 100 95 100 89 85 79 79 82 71 68 69 69
28 27 30 34 36 39 40 43 50 63 74 75 76 80 82 87 89 90 94 100 102 104 102 105 108 112 111 106 100 95 98 100 101 102 104 103 93 87 76 81 84 85 88 82 81
33 34 36 37 39 41 45 49 51 52 59 69 77 79 83 85 88 93 95 96 100 104 108 108 109 107 108 106 108 105 102 101 103 103 102 103 98 88 81 80 84 83 88 85 81
32 33 36 39 43 45 46 50 53 56 60 63 66 72 78 82 87 91 94 97 100 101 106 112 113 111 109 105 111 112 109 104 102 103 108 113 97 91 94 91 81 79 79 80 85
29 27 30 33 36 42 48 53 55 56 58 61 67 73 78 82 85 89 92 98 101 103 107 111 113 117 117 113 111 114 110 110 109 108 110 113 97 99 102 100 98 96 95 92 85
25 24 22 24 27 31 32 35 40 47 56 63 67 74 79 87 91 93 95 99 103 107 110 114 116 114 119 121 115 116 115 110 109 108 111 116 97 104 105 105 100 98 92 89 85
25 24 24 24 25 30 35 39 42 45 49 59 67 73 80 87 94 98 102 106 108 110 113 116 118 115 119 121 120 128 122 118 113 114 111 108 114 109 105 100 96 95 94 94 92
23 24 25 25 26 28 32 37 42 46 52 57 62 70 80 87 94 103 105 108 112 115 116 118 117 119 122 123 121 122 122 123 122 118 115 112 105 105 106 102 98 100 99 97 93
20 21 22 23 26 29 34 41 45 49 54 58 61 66 69 74 81 90 100 107 112 116 119 119 118 122 123 125 126 124 121 117 118 123 118 113 104 101 97 92 92 89 87 87 85
23 24 24 27 30 36 41 46 48 51 55 57 60 64 66 69 68 75 77 90 98 108 115 114 118 123 123 122 124 126 125 121 116 116 111 112 101 100 102 100 95 97 95 95 92
26 27 28 31 35 40 44 46 49 52 56 57 60 65 68 63 63 74 71 73 79 87 97 105 107 115 122 124 124 120 121 120 122 118 112 105 98 93 103 96 99 99 101 97 95
28 27 29 30 33 37 41 43 47 51 54 56 61 63 61 60 62 59 59 61 68 70 78 86 95 103 113 116 119 121 120 118 117 115 112 104 101 90 94 95 99 101 100 98 95
29 29 26 28 34 38 40 43 48 50 51 54 60 60 55 53 58 48 51 51 56 59 65 71 77 90 102 106 110 113 116 119 116 110 96 100 101 88 91 93 91 91 89 85 81
28 28 33 33 39 42 43 49 54 55 56 58 59 59 52 50 56 46 44 45 45 47 51 62 67 75 86 97 99 103 108 111 111 108 100 100 88 83 79 86 87 86 82 79 74
33 37 39 40 43 46 46 53 59 57 59 57 61 58 57 57 51 47 42 38 38 39 44 49 58 66 71 81 90 91 92 102 105 102 102 96 82 78 74 79 83 78 73 68 64
39 43 45 47 49 49 52 55 59 58 62 61 60 55 52 55 51 45 40 34 34 34 38 43 49 54 59 68 75 83 87 92 96 95 92 88 88 79 75 75 75 74 70 64 57
38 43 47 50 51 52 58 57 59 58 62 65 65 57 52 52 45 40 37 31 29 29 32 37 42 46 49 55 59 69 75 78 77 83 87 84 85 81 75 67 70 69 64 58 52
39 41 45 50 52 52 52 57 59 60 62 66 66 59 56 50 42 32 30 27 25 25 26 30 36 39 43 44 49 56 69 68 69 76 81 82 81 76 72 67 65 57 54 53 55
41 43 47 50 50 53 55 59 59 62 63 67 66 60 57 47 39 32 24 22 21 21 20 23 29 34 36 40 44 50 60 65 63 69 73 74 75 74 69 65 64 51 50 51 52
42 41 43 47 49 53 56 60 59 62 63 67 67 61 59 47 33 29 25 21 18 15 16 18 23 27 31 34 39 46 54 58 61 61 66 68 71 69 67 65 64 52 46 47 51
47 44 43 48 49 51 53 57 59 60 63 65 65 63 59 49 36 30 25 21 16 12 10 12 17 22 25 29 35 42 49 53 53 62 58 70 70 68 67 66 63 52 45 44 42
48 46 46 49 51 52 54 56 59 58 62 63 64 61 59 53 38 30 24 20 16 11 8 8 11 19 24 28 34 38 47 51 55 56 65 64 66 69 69 69 62 53 44 39 36
49 51 50 48 53 55 54 55 57 60 59 61 61 61 58 54 36 30 23 18 14 9 7 6 10 15 21 26 31 37 46 50 53 57 58 53 64 68 70 69 61 52 44 38 42

GFSSW_250_spd_048.txt.gz
Wind_Speed
20 13 12 35 66 75 76 77 77 76 75 76 81 83 85 89 90 91 101 106 103 97 103 101 100 101 96 91 91 89 84 78 80 83 88 81 77 74 72 72 73 73 68 69 67
20 18 12 13 36 68 75 76 76 77 78 78 77 78 82 86 88 88 91 98 98 98 103 102 101 103 101 102 92 91 84 82 82 84 89 90 86 83 80 81 78 74 71 67 68
21 20 18 16 18 35 67 72 76 75 78 79 79 78 78 84 86 87 91 96 97 97 97 104 109 107 103 104 98 104 90 90 94 97 94 92 87 83 81 78 77 71 72 77 78
24 21 23 23 22 24 35 58 69 76 77 78 81 81 79 79 83 86 89 93 92 95 100 99 99 101 104 106 105 104 101 100 93 95 96 96 92 85 82 82 83 80 78 82 83
27 25 24 27 29 29 30 39 51 66 75 79 80 82 83 83 82 85 91 94 91 93 96 100 101 104 97 99 104 100 97 99 101 98 94 98 95 92 91 87 87 83 79 80 81
28 27 28 30 32 34 36 36 41 52 62 72 80 82 82 84 86 86 88 95 99 101 99 103 102 104 101 104 101 101 100 100 101 106 105 103 100 99 84 85 79 78 82 79 73
32 32 31 32 37 38 40 42 45 45 50 60 70 79 86 86 89 90 92 93 95 99 102 104 108 105 104 104 110 105 108 103 100 101 101 106 97 90 83 79 83 83 82 78 75
29 27 28 32 34 38 44 47 48 50 53 55 58 66 77 85 87 89 92 95 97 99 101 103 105 109 109 109 108 114 115 109 100 105 105 113 105 86 91 94 90 83 78 77 84
29 28 27 27 29 33 37 42 49 53 56 58 60 63 65 71 79 88 93 95 98 101 104 106 107 107 108 111 114 114 111 111 112 110 112 115 99 94 99 108 99 95 91 87 81
33 32 29 27 28 29 30 33 36 42 51 57 62 66 71 72 75 80 85 94 101 101 104 108 110 111 112 113 108 108 113 114 115 114 121 118 99 98 103 102 100 98 94 91 88
26 26 27 27 30 30 31 31 33 36 39 45 51 60 68 74 79 83 87 92 97 101 105 108 110 113 117 118 114 114 113 112 112 114 115 110 104 103 104 106 100 96 97 96 92
25 24 23 25 26 30 32 36 38 41 45 49 53 57 61 67 75 84 88 95 100 103 106 108 109 117 119 119 117 118 117 111 113 115 115 111 99 105 105 102 101 96 92 93 92
24 22 24 24 25 25 27 30 34 39 44 48 52 57 63 66 70 76 83 91 98 103 107 108 114 117 118 120 120 120 118 117 116 116 115 111 104 104 100 104 101 98 98 98 94
25 21 22 25 28 28 31 32 34 38 41 43 49 54 59 62 65 70 73 77 86 92 100 103 112 118 119 119 120 119 118 120 119 118 111 113 102 109 102 99 102 99 96 97 94
25 24 22 24 22 22 23 28 32 34 34 38 42 47 52 57 62 68 71 70 73 81 89 92 103 108 110 115 120 119 119 118 118 116 114 112 108 99 100 100 101 102 102 102 100
26 25 22 22 25 28 31 35 37 40 42 46 49 50 52 58 58 63 67 67 69 75 74 77 89 95 100 103 107 110 115 119 117 115 114 101 110 95 100 98 100 105 106 106 100
30 28 27 29 33 34 37 40 42 45 47 45 51 51 53 59 59 59 59 62 63 63 63 68 74 78 83 90 95 99 103 108 111 113 104 101 103 91 98 100 99 98 98 101 97
32 32 34 36 39 40 42 43 44 44 45 49 50 55 56 59 58 55 58 59 58 51 51 55 61 65 68 72 77 86 95 93 94 97 101 109 103 87 91 94 97 98 96 91 88
34 36 36 37 37 40 41 43 43 45 46 51 55 59 61 62 55 57 54 53 46 42 42 48 54 58 60 62 66 71 77 86 90 88 97 95 95 100 94 88 89 90 90 89 85
33 36 36 37 40 45 47 46 46 51 52 55 56 59 63 64 56 56 48 41 35 34 37 41 46 47 49 54 59 62 68 73 82 81 79 88 89 89 95 91 93 82 76 75 74
36 37 39 40 41 44 47 48 48 51 54 56 59 61 63 63 56 52 42 37 28 26 28 32 35 37 39 43 47 52 58 64 72 72 75 83 83 94 90 89 87 78 71 65 62
38 36 39 44 45 46 48 51 52 53 54 56 60 62 63 61 56 47 34 28 24 22 23 26 27 31 32 34 38 45 49 58 63 65 69 79 83 86 84 84 84 77 70 61 53
41 42 42 47 48 50 50 53 54 56 57 58 61 62 64 60 56 43 36 28 22 21 20 21 22 25 27 27 33 39 44 50 55 56 62 69 73 80 82 85 80 71 64 56 52
45 44 45 49 52 52 51 54 57 58 60 58 58 62 65 62 54 42 33 29 22 20 19 18 19 18 21 22 29 34 40 44 48 54 62 71 79 78 79 78 73 63 60 58 54
41 44 46 50 53 53 54 56 59 58 57 56 55 58 61 61 56 47 38 30 25 21 17 15 14 13 15 18 25 28 34 38 48 54 61 73 74 72 69 70 67 60 56 57 52
34 38 41 44 50 53 52 53 53 51 52 53 53 55 57 58 53 47 37 30 26 20 16 13 11 10 11 16 22 26 31 36 46 53 61 69 70 67 64 69 64 57 57 56 48
33 33 34 38 42 43 42 43 44 46 45 47 50 53 55 56 52 45 36 31 24 19 12 4 4 6 10 14 19 25 31 37 43 53 59 62 64 57 63 64 60 55 58 53 49